La Crosse, WI

6:57 PM CDT on August 22, 2017 (GMT -0500)
La Crosse Municipal

Weather History for KLSE - June, 2013

Change the Weather History Date:

Thursday, June 13, 2013

  Actual Average Record
Temperature  
Mean Temperature 70 °F 69 °F  
Max Temperature 80 °F 80 °F 97 °F (1956)
Min Temperature 59 °F 58 °F 42 °F (1969)
Degree Days  
Heating Degree Days 0 1  
Month to date heating degree days 44 27  
Since 1 June heating degree days 44  
Since 1 July heating degree days 7471 7184  
Cooling Degree Days 5 5  
Month to date cooling degree days 19 49  
Year to date cooling degree days 79 97  
Since 1 June cooling degree days 19  
Growing Degree Days 20 (Base 50)    
Moisture  
Dew Point 56 °F    
Average Humidity 70    
Maximum Humidity 97    
Minimum Humidity 42    
Precipitation  
Precipitation 0.00 in 0.16 in 2.37 in (1950)
Month to date precipitation 1.58 1.84  
Year to date precipitation 20.51 12.91  
Snow  
Snow 0.00 in 0.00 in 0.00 in (2002)
Month to date snowfall 0.0 0.0  
Since 1 June snowfall 0.0  
Since 1 July snowfall 60.6 43.3  
Snow Depth 0.00 in    
Sea Level Pressure  
Sea Level Pressure 29.97 in    
Wind  
Wind Speed 7 mph (NNW)    
Max Wind Speed 16 mph    
Max Gust Speed 29 mph    
Visibility 10 miles    
Events      
T = Trace of Precipitation, MM = Missing Value Source: NWS Daily Summary

Daily Weather History Graph

Daily Weather History Graph

Search for Another Location

Airport or City:

Trip Planner

Search our weather history database for the weather conditions in past years. The results will help you decide how hot, cold, wet, or windy it might be!

Date:

Astronomy

Jun. 13, 2013 Rise Set
Actual Time 5:22 AM CDT 8:48 PM CDT
Civil Twilight 4:45 AM CDT 9:24 PM CDT
Nautical Twilight 3:58 AM CDT 10:11 PM CDT
Astronomical Twilight 2:58 AM CDT 11:11 PM CDT
Moon 10:06 AM CDT (6/13) 11:46 PM CDT (6/13)
Length of Visible Light 16h 38m
Length of Day
15h 26m
Waxing Crescent, 22% of the Moon is Illuminated
Jun 13
Waxing Crescent
Jun 16
First Quarter
Jun 23
Full
Jun 29
Last Quarter
Jul 8
New

Hourly Weather History & Observations

Time (CDT) Temp. Heat Index Dew Point Humidity Pressure Visibility Wind Dir Wind Speed Gust Speed Precip Events Conditions
12:53 AM 64.0 °F - 59.0 °F 84% 29.83 in 10.0 mi Calm Calm - N/A   Partly Cloudy
1:53 AM 62.1 °F - 59.0 °F 90% 29.85 in 10.0 mi NW 5.8 mph - N/A   Mostly Cloudy
2:53 AM 62.1 °F - 60.1 °F 93% 29.86 in 10.0 mi North 3.5 mph - N/A   Scattered Clouds
3:53 AM 61.0 °F - 59.0 °F 93% 29.86 in 10.0 mi NNW 4.6 mph - N/A   Clear
4:53 AM 63.0 °F - 59.0 °F 87% 29.90 in 10.0 mi NNW 10.4 mph - N/A   Clear
5:53 AM 61.0 °F - 57.9 °F 90% 29.92 in 10.0 mi NNW 6.9 mph - N/A   Clear
6:53 AM 64.0 °F - 55.0 °F 73% 29.95 in 10.0 mi NNW 8.1 mph - N/A   Clear
7:53 AM 66.0 °F - 54.0 °F 65% 29.97 in 10.0 mi NNW 6.9 mph - N/A   Clear
8:53 AM 68.0 °F - 54.0 °F 61% 29.98 in 10.0 mi NW 6.9 mph - N/A   Clear
9:53 AM 70.0 °F - 55.9 °F 61% 30.00 in 10.0 mi NW 6.9 mph - N/A   Clear
10:53 AM 72.0 °F - 55.9 °F 57% 30.01 in 10.0 mi NW 9.2 mph - N/A   Clear
11:53 AM 73.9 °F - 55.9 °F 53% 30.01 in 10.0 mi WNW 9.2 mph - N/A   Clear
12:53 PM 75.9 °F - 57.0 °F 52% 30.01 in 10.0 mi WNW 10.4 mph - N/A   Clear
1:53 PM 79.0 °F - 55.9 °F 45% 30.01 in 10.0 mi NNW 11.5 mph - N/A   Scattered Clouds
2:53 PM 79.0 °F - 54.0 °F 42% 30.01 in 10.0 mi NNW 17.3 mph 28.8 mph N/A   Mostly Cloudy
3:53 PM 79.0 °F - 55.0 °F 44% 30.01 in 10.0 mi North 10.4 mph - N/A   Partly Cloudy
4:53 PM 80.1 °F 80.1 °F 55.0 °F 42% 29.99 in 10.0 mi North 8.1 mph - N/A   Clear
5:53 PM 78.1 °F - 54.0 °F 43% 30.00 in 10.0 mi NNE 9.2 mph - N/A   Partly Cloudy
6:53 PM 77.0 °F - 53.1 °F 43% 30.01 in 10.0 mi NNE 4.6 mph - N/A   Clear
7:53 PM 75.0 °F - 55.0 °F 50% 30.02 in 10.0 mi North 3.5 mph - N/A   Clear
8:53 PM 70.0 °F - 55.9 °F 61% 30.02 in 10.0 mi Calm Calm - N/A   Partly Cloudy
9:53 PM 68.0 °F - 59.0 °F 73% 30.03 in 10.0 mi NNW 3.5 mph - N/A   Clear
10:53 PM 66.0 °F - 57.0 °F 73% 30.03 in 10.0 mi Calm Calm - N/A   Scattered Clouds
11:53 PM 64.0 °F - 57.0 °F 78% 30.05 in 10.0 mi Calm Calm - N/A   Clear